Location: Eboli
(40.6000°N, 15.0667°E)
Time: 20:03:23
(UTC+00:00)

Daily predictions for brighter satellites

Satellite Brightness Start Highest point End
(mag) Time Altitude Azimuth Time Altitude Azimuth Time Altitude Azimuth
Cosmos 2074 Rocket 4.1 17:05:40 10° S 17:11:48 61° E 17:17:59 10° NNE
GENESIS II 4.3 17:10:19 10° SW 17:14:08 80° WNW 17:17:59 10° NNE
Meteor 2-12 Rocket 4.4 17:09:45 10° S 17:15:50 78° E 17:21:55 10° N
Cosmos 1378 Rocket 3.6 17:11:37 10° N 17:16:03 69° E 17:20:28 10° SSE
CZ-4 R/B 4.4 17:12:36 10° SSE 17:16:42 68° ENE 17:20:51 10° N
Cosmos 1908 Rocket 3.7 17:13:44 10° S 17:18:05 54° E 17:22:27 10° NNE
Cosmos 1354 Rocket 4.1 17:13:46 10° SSW 17:19:02 89° WNW 17:24:18 10° NNE
Cosmos 2369 Rocket 2.3 17:13:38 10° S 17:19:07 54° ESE 17:24:36 10° NNE
CZ-4B R/B 2.9 17:20:29 10° ENE 17:22:21 15° E 17:24:14 10° SE
Spot 2 3.9 17:24:33 10° SSE 17:28:45 76° ENE 17:32:50 10° N
Cosmos 1656 Rocket 4.0 17:24:23 10° S 17:29:38 44° ESE 17:34:51 10° NE
Cosmos 1674 3.2 17:26:19 10° N 17:29:47 36° ENE 17:33:15 10° SSE
SJ 16-02 1.7 17:27:03 10° S 17:31:12 41° ESE 17:35:23 10° NNE
YAOGAN 1 2.7 17:28:00 10° SSE 17:32:11 51° ENE 17:36:23 10° N
COSMOS 2455 3.1 17:27:02 10° NNW 17:33:03 75° WSW 17:39:04 10° SSE
Cosmos 1626 3.2 17:30:35 10° NNE 17:33:42 25° ENE 17:36:47 10° SE
Cosmos 773 Rocket 4.1 17:28:37 10° NNW 17:33:51 61° ENE 17:39:04 10° SSE
Cosmos 1674 Rocket 4.2 17:33:06 10° NNW 17:37:22 59° W 17:41:35 10° S
Okean O Rocket 2.6 17:34:27 10° S 17:38:43 51° W 17:42:58 10° NNW
CENTAUR R/B 3.2 17:35:55 10° SSE 17:40:30 26° ESE 17:45:44 10° NE
Lacrosse 5 rocket 1.6 17:38:45 10° NW 17:43:18 79° SW 17:47:39 10° SE
USA 215 4.2 17:39:55 12° E 17:45:09 33° NNE 17:50:53 10° NW
USA 186 3.7 17:47:36 14° NE 17:47:36 14° NE 17:48:45 10° NE
Cosmos 1805 3.5 17:44:12 10° SSE 17:47:54 45° E 17:51:37 10° NNE
COSMO-SKYMED 1 4.5 17:47:26 10° N 17:51:20 33° WNW 17:55:14 10° SW
Cosmos 1707 4.1 17:49:44 10° NNW 17:53:27 43° W 17:57:08 10° SSW
Cosmos 1295 Rocket 4.4 17:47:42 10° S 17:53:56 77° E 18:00:15 10° N
SL-14 R/B 4.2 17:52:42 10° NNE 17:56:08 27° ENE 17:57:15 24° ESE
OBJECT-B 2.4 17:56:56 18° NE 17:56:56 18° NE 17:58:42 10° NNE
Cosmos 1315 Rocket 3.0 17:53:12 10° S 17:57:01 48° E 18:00:55 10° NNE
Cosmos 2263 4.1 17:51:54 10° SSW 17:57:29 80° ESE 18:03:07 10° NNE
CZ-3 Stage 3 4.4 17:22:25 10° WSW 17:57:46 45° S 18:02:20 18° ESE
Cosmos 1184 Rocket 2.9 17:55:17 10° N 17:58:22 45° ENE 17:59:58 23° SE
HJ-1C 3.2 17:55:40 10° SSE 17:58:56 90° NW 18:02:12 10° NNW
Cosmos 1400 Rocket 4.3 17:55:17 10° SSW 17:59:09 41° WNW 18:02:59 10° N
ATLAS CENTAUR R/B 3.1 17:56:02 10° NW 18:00:29 40° WSW 18:05:00 10° S
SJ-6B 4.1 18:00:27 22° ENE 18:00:51 23° ENE 18:04:05 10° NNE
H-2A R/B 3.6 17:57:11 10° S 18:01:31 50° W 18:05:55 10° NNW
KORONAS-FOTON 3.8 17:58:06 10° N 18:01:54 79° W 18:05:40 10° S
Okean 2 Rocket 4.0 18:01:06 24° ESE 18:02:02 26° E 18:05:41 10° NNE
Cosmos 1733 3.1 17:59:09 10° S 18:02:52 62° E 18:06:39 10° NNE
Cosmos 1238 Rocket 4.4 17:58:04 10° SSW 18:04:14 60° W 18:09:37 10° N
H-2A R/B 2.3 18:01:52 10° N 18:06:01 67° WNW 18:10:04 10° SSW
USA 238 DEB 3.9 18:01:58 10° S 18:07:54 41° ESE 18:14:06 10° NE
USA 238 3.9 18:02:06 10° S 18:08:01 41° ESE 18:14:13 10° NE
Cosmos 1782 Rocket 3.8 18:05:33 10° SSW 18:09:58 74° W 18:14:24 10° N
CZ-4 R/B 2.1 18:06:51 10° S 18:10:34 51° W 18:14:21 10° NNW
CSL-04 Rocket 3.7 18:06:29 10° SSE 18:11:44 61° ENE 18:17:06 10° N
Meteor 1-15 Rocket 4.1 18:08:41 10° S 18:14:10 65° E 18:19:44 10° NNE
NOSS 3-2 (A) 3.2 18:10:14 10° SSW 18:15:35 66° ESE 18:21:41 10° NE
Cosmos 1025 Rocket 3.2 18:12:13 10° N 18:16:25 48° E 18:17:54 33° SE
Sich 1 Rocket 3.6 18:12:59 10° S 18:17:25 55° E 18:21:50 10° NNE
Cosmos 158 Rocket 3.9 18:13:00 10° NNW 18:17:56 57° ENE 18:20:12 30° SE
Cosmos 1766 3.1 18:15:42 10° S 18:19:36 69° E 18:23:28 10° NNE
ISS -1.4 18:19:09 10° NNW 18:21:02 14° N 18:21:46 13° NNE
USA 276 4.2 18:21:22 10° NNW 18:23:32 17° N 18:23:47 17° NNE
SL-8 Rocket 4.0 18:17:50 10° S 18:23:57 59° E 18:30:09 10° NNE
Cosmos 1538 Rocket 4.0 18:19:51 10° NNW 18:25:16 83° ENE 18:28:57 21° SSE
Meteor 2-5 Rocket 3.7 18:26:39 10° N 18:32:07 55° ENE 18:34:08 36° SE
Cosmos 1339 Rocket 4.3 18:29:01 10° N 18:35:10 70° E 18:39:17 22° SSE
Cosmos 2151 Rocket 4.1 18:37:43 41° NE 18:37:43 41° NE 18:41:01 10° NNE
APEX 3.1 18:34:53 10° NNW 18:39:18 77° ENE 18:39:18 77° ENE
Cosmos 1975 Rocket 3.9 18:35:39 10° NNW 18:39:59 52° W 18:44:19 10° S
Cosmos 1300 Rocket 3.6 18:35:44 10° SSW 18:40:06 77° W 18:44:30 10° N
Atlas Centaur 2 3.8 18:32:57 10° WSW 18:40:30 39° S 18:43:54 28° SE
Cosmos 1346 Rocket 4.5 18:39:30 10° NNW 18:43:10 34° W 18:46:48 10° SSW
Cosmos 2297 Rocket 4.2 18:42:03 10° NNE 18:44:16 14° NE 18:44:16 14° NE
Helios 1A Rocket 4.3 18:48:08 27° NNE 18:48:08 27° NNE 18:50:18 10° N
Cosmos 1727 Rocket 4.3 18:42:25 10° N 18:48:25 43° ENE 18:48:27 43° ENE
Okean-O 4.0 18:44:47 10° SSW 18:48:54 39° W 18:53:04 10° NNW
SeaSat 1 2.6 18:53:20 54° NE 18:53:20 54° NE 18:57:58 10° NNW
CZ-4B R/B 3.8 18:51:53 10° NNW 18:54:23 23° WNW 18:56:55 10° SW
Cosmos 1441 Rocket 4.1 18:52:30 10° NNW 18:55:05 42° NNW 18:55:05 42° NNW
USA 305 4.2 18:54:13 10° NW 18:57:20 31° N 18:57:20 31° N
BREEZE-M R/B 3.9 18:56:25 10° NW 18:59:30 29° N 18:59:39 29° NNE
Cosmos 2369 Rocket 4.5 18:59:01 10° WSW 19:03:28 23° NW 19:07:55 10° N
Resurs 01 Rocket 3.6 19:06:46 18° NNE 19:06:46 18° NNE 19:08:09 10° N
Cosmos 923 Rocket 3.9 19:01:24 10° NNW 19:06:26 81° NNE 19:06:26 81° NNE
Cosmos 2227 Rocket 4.2 19:04:38 10° NNE 19:06:29 14° NNE 19:06:29 14° NNE
Cosmos 2366 rocket 4.0 19:03:02 10° SSW 19:09:09 76° W 19:15:19 10° N
SJ 16-02 4.1 19:06:54 10° WSW 19:09:58 18° WNW 19:13:04 10° NNW
Meteor 1-24 Rocket 3.6 19:04:57 10° N 19:10:23 84° W 19:10:53 74° SSW
Cosmos 1241 Rocket 4.2 19:07:35 10° NNW 19:13:53 86° ENE 19:14:17 79° SE
USA 307 4.5 19:10:23 10° NW 19:12:58 29° NNW 19:12:58 29° NNW
Cosmos 1680 Rocket 3.8 19:13:36 10° NNW 19:17:55 60° N 19:17:55 60° N
Cosmos 2218 Rocket 4.5 19:17:16 10° SSW 19:23:17 57° W 19:29:25 10° N
NOSS 3-2 (C) 3.5 19:22:12 10° SW 19:27:39 68° NW 19:29:54 39° NNE
USA 215 3.1 19:27:17 81° ESE 19:27:40 89° NE 19:34:15 10° NW
OBJECT-B 4.0 19:29:50 13° WNW 19:29:50 13° WNW 19:30:32 10° NW
CENTAUR R/B 3.1 19:24:57 10° SW 19:30:35 52° NW 19:37:21 10° NNE
CZ-3 Stage 3 3.7 19:10:42 10° WSW 19:32:56 46° SSW 19:33:33 45° S
Ariane Rocket 4.2 19:45:25 39° NW 19:45:25 39° NW 19:48:40 10° NNW
Cosmos 2297 Rocket 4.3 20:24:10 10° NNW 20:26:04 22° NNW 20:26:04 22° NNW
